Regional Weather Roundup
Issued by NWS

Home | Current Version | Previous Version | Text Only | Print | Product List | Glossary On
Versions: 1 2 3 4 5 6 7 8 9 10 11 12 13 14 15 16 17 18 19 20 21 22 23 24 25 26 27 28 29 30 31 32 33 34 35 36 37 38 39 40 41 42 43 44 45 46 47 48 49 50
281
ASUS44 KJAN 202210
RWRMS

MISSISSIPPI HOURLY WEATHER ROUNDUP
NATIONAL WEATHER SERVICE JACKSON MS
500 PM CDT SAT SEP 20 2014

NOTE: "FAIR: INDICATES FEW OR NO CLOUDS BELOW 12,000 FEET WITH NO
SIGNIFICANT WEATHER AND/OR OBSTRUCTIONS TO VISIBILITY.

MSZ001>002-007>008-010>013-018>021-025>028-034>036-202300-
NORTHWEST MISSISSIPPI

CITY           SKY/WX    TMP DP  RH WIND       PRES   REMARKS
CLARKSDALE     FAIR      86  66  51 CALM      29.97F
CLEVELAND      FAIR      90  66  45 E5        29.95S HX  92
GREENWOOD      MOSUNNY   90  65  43 E6        29.96F HX  92
GREENVILLE     SUNNY     90  58  33 S3        29.94F
GRENADA        FAIR      86  64  48 E6        29.99R
OLIVE BRANCH   PTSUNNY   86  66  51 S5        29.99F
OXFORD         FAIR      84  64  51 CALM      30.01S
TUNICA         MOCLDY    88  64  45 CALM      29.98F
$$

MSZ003>006-009-014>017-022>024-029>033-037>039-202300-
NORTHEAST MISSISSIPPI

CITY           SKY/WX    TMP DP  RH WIND       PRES   REMARKS
COLUMBUS AFB   SUNNY     87  62  43 SE5       29.98F
CORINTH        MOCLDY    84  68  58 N3        30.00S
GOLDN TRIANGLE MOSUNNY   88  64  45 E3        29.99F
STARKVILLE     FAIR      86  64  48 NE7       29.99S
TUPELO         SUNNY     86  64  47 SE3       29.99F
$$

MSZ040-058-202300-
CENTRAL MISSISSIPPI

CITY           SKY/WX    TMP DP  RH WIND       PRES   REMARKS
JACKSON INTL   MOSUNNY   87  65  47 NE6       29.97F
JACKSON HAWKNS SUNNY     88  64  44 E7        29.97F
MERIDIAN KEY   MOSUNNY   87  61  41 E7        29.97F
MERIDIAN NAS   MOSUNNY   87  60  40 E9        29.98F
RAYMOND        FAIR      90  84  84 E5        29.97S HX 115
VICKSBURG      SUNNY     90  65  43 E9        29.95F HX  92
$$

MSZ059>079-202300-
SOUTH MISSISSIPPI

CITY           SKY/WX    TMP DP  RH WIND       PRES   REMARKS
BROOKHAVEN     FAIR      88  64  45 E6        29.98F
COLUMBIA       FAIR      88  68  51 E6        29.95F HX  91
HATTIESBURG    MOSUNNY   89  65  44 VRB5      29.96F HX  91
MCCOMB         SUNNY     87  65  47 VRB6      29.96F
NATCHEZ        SUNNY     88  68  51 NE5       29.97S HX  91
PINE BELT      MOSUNNY  N/A N/A N/A NE6       29.98F
$$

MSZ080>082-202300-
COASTAL MISSISSIPPI

CITY           SKY/WX    TMP DP  RH WIND       PRES   REMARKS
BAY ST LOUIS   MOSUNNY   86  66  51 SE7       29.94F
BILOXI         MOSUNNY   88  65  46 E12       29.93F HX  90
PASCAGOULA     MOSUNNY   83  67  58 NE8       29.95S
GULFPORT       PTSUNNY   85  71  63 SE13      29.93F HX  90
$$



USA.gov is the U.S. government's official web portal to all federal, state and local government web resources and services.